Home   Weather   Santa Cruz de Tenerife   Past weeks

Flag for Spain Past Weather in Santa Cruz de Tenerife, Canary Islands, Spain — Yesterday and Last 2 Weeks

59 °F

Passing clouds.

Feels Like: 58 °F
Forecast: 71 / 76 °F
Wind: 7 mph from West

Location: Tenerife / Los Rodeos

Current Time: Oct 24, 2016 at 10:53:43 PM

Latest Report: Oct 24, 2016 at 10:00 PM

Visibility: N/A

Pressure: 29.83 "Hg

Humidity: 94%

Dew Point: 57 °F

Location of Santa Cruz de TenerifeLocation

Past Weather in Santa Cruz de Tenerife — Graph


Santa Cruz de Tenerife Temperature Yesterday

Maximum temperature yesterday: 68 °F (at 10:00 AM)
Minimum temperature yesterday: 59 °F (at 4:30 PM)
Average temperature yesterday: 62 °F

High & Low Weather Summary for the Past Weeks

High81 °F (Oct 17, 2:00 PM)100% (Oct 11, 2:00 AM)30.21 "Hg (Oct 11, 2:00 AM)
Low55 °F (Oct 15, 5:30 AM)37% (Oct 18, 4:00 PM)29.77 "Hg (Oct 24, 4:30 PM)
Average66 °F77%30.05 "Hg
* Reported Oct 9 9:00 PM — Oct 24 9:30 PM, Santa Cruz de Tenerife, Weather by CustomWeather, © 2016

Note: Actual official high and low records may vary slightly from our data, if they occured in-between our weather recording intervals... More about our weather records


Santa Cruz de Tenerife Weather History for the Previous 24 Hours

Scroll right to see more
Time TempWeatherWind HumidityBarometerVisibility
9:30 PM
Mon, Oct 24
59 °FPassing clouds.5 mph94%29.80 "HgN/A
9:00 PM59 °FPassing clouds.12 mph100%29.80 "HgN/A
8:30 PM61 °FPassing clouds.6 mph94%29.80 "HgN/A
8:00 PM61 °FPassing clouds.3 mph94%29.80 "HgN/A
7:30 PM61 °FPartly cloudy.6 mph94%29.77 "HgN/A
7:00 PM63 °FScattered clouds.9 mph83%29.77 "HgN/A
6:30 PM63 °FScattered clouds.6 mph83%29.77 "HgN/A
6:00 PM63 °FScattered clouds.12 mph88%29.77 "HgN/A
5:30 PM66 °FScattered clouds.10 mph83%29.77 "HgN/A
5:00 PM66 °FScattered clouds.9 mph78%29.77 "HgN/A
4:30 PM66 °FScattered clouds.6 mph78%29.77 "HgN/A
4:00 PM64 °FPartly sunny.3 mph78%29.80 "HgN/A
3:30 PM63 °FPartly sunny.2 mph88%29.80 "HgN/A
3:00 PM63 °FPartly sunny.7 mph83%29.80 "HgN/A
2:30 PM63 °FPartly sunny.10 mph83%29.80 "HgN/A
2:00 PM64 °FDrizzle. Partly sunny.13 mph83%29.83 "Hg6 mi
1:30 PM64 °FScattered clouds.13 mph78%29.83 "HgN/A
1:00 PM64 °FScattered clouds.12 mph78%29.83 "HgN/A
12:30 PM64 °FScattered clouds.14 mph78%29.86 "HgN/A
12:00 PM66 °FScattered clouds.9 mph78%29.86 "HgN/A
11:30 AM64 °FScattered clouds.7 mph83%29.86 "HgN/A
11:00 AM64 °FScattered clouds.5 mph78%29.86 "HgN/A
10:30 AM64 °FScattered clouds.5 mph78%29.86 "HgN/A
10:00 AM63 °FScattered clouds.1 mph88%29.83 "HgN/A
9:30 AM59 °FBroken clouds.2 mph94%29.83 "HgN/A
9:00 AM59 °FBroken clouds.2 mph88%29.83 "HgN/A
8:30 AM59 °FDrizzle. Partly sunny.5 mph88%29.83 "Hg6 mi
8:00 AM59 °FPassing clouds.3 mph88%29.83 "Hg5 mi
7:30 AM59 °FPassing clouds.5 mph88%29.83 "HgN/A
7:00 AM59 °FPassing clouds.6 mph82%29.83 "HgN/A
6:30 AM59 °FPassing clouds.7 mph88%29.80 "HgN/A
6:00 AM59 °FPassing clouds.8 mph88%29.83 "HgN/A
5:30 AM59 °FPassing clouds.10 mph88%29.83 "HgN/A
5:00 AM59 °FPartly cloudy.8 mph94%29.83 "HgN/A
4:30 AM59 °FLight rain. Partly cloudy.7 mph94%29.83 "HgN/A
4:00 AM59 °FPartly cloudy.22 mph88%29.83 "HgN/A
3:30 AM59 °FLight rain. Partly cloudy.18 mph94%29.86 "Hg6 mi
3:00 AM59 °FPassing clouds.24 mph94%29.83 "HgN/A
2:30 AM59 °FClear.18 mph88%29.86 "Hg10 mi
2:00 AM61 °FPassing clouds.13 mph83%29.86 "HgN/A
1:30 AM59 °FPassing clouds.10 mph88%29.89 "HgN/A
1:00 AM59 °FPartly cloudy.9 mph94%29.89 "HgN/A
12:30 AM59 °FLight rain. Partly cloudy.3 mph94%29.92 "Hg6 mi
12:00 AM59 °FPartly cloudy.10 mph94%29.92 "HgN/A
11:30 PM
Sun, Oct 23
61 °FPassing clouds.9 mph83%29.92 "HgN/A
11:00 PM61 °FPassing clouds.5 mph83%29.92 "HgN/A
10:30 PM61 °FPassing clouds.6 mph83%29.92 "HgN/A
10:00 PM61 °FPassing clouds.7 mph83%29.92 "HgN/A
Weather by CustomWeather, © 2016

See weather overviewHow to use our weather pages